USA 148                 
1 26052U 00001A   19258.72208187  .00000038  00000-0  00000+0 0  9996
2 26052   7.9910  48.1952 0001354  56.2496 330.0699  1.00274572  6898
ATLAS 2A CENTAUR R/B    
1 26053U 00001B   19259.21304191  .00006517  00000-0  76735-3 0  9994
2 26053  25.9131 269.7148 6171080  88.8267 336.5273  3.81431272224792
IABS R/B                
1 26054U 00001C   19252.22210300 -.00000222  00000-0  00000+0 0  9993
2 26054  13.5474  19.2778 0016006 303.4944  56.3898  1.01180880  1071